Previsão horária em Juchipila

Hoje, 24 Junho, Quinta-feira

Tempo Temperatura Precipitação Vento Pressão Humidade
00:00 +23°C° 0.1 mm 1 m/s 646 mmHg 75%
01:00 +23°C° 0.1 mm 1 m/s 645 mmHg 76%
02:00 +23°C° 0.1 mm 1 m/s 645 mmHg 77%
03:00 +22°C° 0.1 mm 1 m/s 645 mmHg 77%
04:00 +22°C° 0.1 mm 1 m/s 645 mmHg 78%
05:00 +22°C° 0.1 mm 1 m/s 645 mmHg 79%
06:00 +23°C° 0 mm 1 m/s 646 mmHg 75%
07:00 +23°C° 0 mm 1 m/s 646 mmHg 72%
08:00 +24°C° 0 mm 1 m/s 646 mmHg 68%
09:00 +25°C° 0.1 mm 1 m/s 646 mmHg 62%
10:00 +26°C° 0.1 mm 1 m/s 646 mmHg 57%
11:00 +28°C° 0.1 mm 2 m/s 646 mmHg 51%
12:00 +28°C° 0.3 mm 2 m/s 646 mmHg 49%
13:00 +29°C° 0.3 mm 1 m/s 645 mmHg 47%
14:00 +29°C° 0.3 mm 1 m/s 645 mmHg 45%
15:00 +29°C° 0.1 mm 1 m/s 644 mmHg 47%
16:00 +28°C° 0.1 mm 1 m/s 644 mmHg 50%
17:00 +28°C° 0.1 mm 1 m/s 644 mmHg 52%
18:00 +27°C° 0.6 mm 1 m/s 644 mmHg 56%
19:00 +26°C° 0.6 mm 1 m/s 644 mmHg 61%
20:00 +25°C° 0.6 mm 1 m/s 645 mmHg 65%
21:00 +24°C° 0.6 mm 1 m/s 645 mmHg 69%
22:00 +24°C° 0.6 mm 1 m/s 645 mmHg 72%
23:00 +21°C° 0.6 mm 0 m/s 645 mmHg 75%

Amanhã, 25 Junho, Sexta-feira

Tempo Temperatura Precipitação Vento Pressão Humidade
00:00 +21°C° 0.3 mm 0 m/s 644 mmHg 77%
01:00 +20°C° 0.3 mm 0 m/s 644 mmHg 79%
02:00 +20°C° 0.3 mm 0 m/s 644 mmHg 81%
03:00 +20°C° 0 mm 0 m/s 644 mmHg 82%
04:00 +19°C° 0 mm 0 m/s 644 mmHg 82%
05:00 +21°C° 0 mm 1 m/s 644 mmHg 83%
06:00 +22°C° 0 mm 1 m/s 644 mmHg 77%
07:00 +24°C° 0 mm 1 m/s 645 mmHg 72%
08:00 +25°C° 0 mm 1 m/s 645 mmHg 66%
09:00 +26°C° 0.1 mm 1 m/s 645 mmHg 59%
10:00 +28°C° 0.1 mm 1 m/s 645 mmHg 53%
11:00 +29°C° 0.1 mm 2 m/s 645 mmHg 46%
12:00 +30°C° 0 mm 2 m/s 645 mmHg 42%
13:00 +31°C° 0 mm 2 m/s 644 mmHg 38%
14:00 +32°C° 0 mm 2 m/s 644 mmHg 33%
15:00 +32°C° 0 mm 2 m/s 643 mmHg 35%
16:00 +31°C° 0 mm 3 m/s 642 mmHg 37%
17:00 +30°C° 0 mm 3 m/s 642 mmHg 40%
18:00 +28°C° 1.5 mm 3 m/s 642 mmHg 51%
19:00 +25°C° 1.5 mm 3 m/s 643 mmHg 62%
20:00 +23°C° 1.5 mm 2 m/s 643 mmHg 73%
21:00 +21°C° 0.5 mm 2 m/s 643 mmHg 74%
22:00 +22°C° 0.5 mm 1 m/s 644 mmHg 76%
23:00 +21°C° 0.5 mm 1 m/s 644 mmHg 77%

Depois de amanhã, 26 Junho, Sábado

Tempo Temperatura Precipitação Vento Pressão Humidade
00:00 +21°C° 0 mm 1 m/s 643 mmHg 77%
01:00 +22°C° 0 mm 1 m/s 643 mmHg 76%
02:00 +20°C° 0 mm 0 m/s 643 mmHg 76%
03:00 +22°C° 0 mm 1 m/s 643 mmHg 76%
04:00 +21°C° 0 mm 1 m/s 643 mmHg 77%
05:00 +20°C° 0 mm 2 m/s 643 mmHg 78%
06:00 +21°C° 0 mm 2 m/s 643 mmHg 72%
07:00 +24°C° 0 mm 2 m/s 643 mmHg 66%
08:00 +25°C° 0 mm 2 m/s 644 mmHg 59%
09:00 +27°C° 0 mm 2 m/s 644 mmHg 53%
10:00 +28°C° 0 mm 3 m/s 644 mmHg 46%
11:00 +30°C° 0 mm 3 m/s 644 mmHg 39%
12:00 +30°C° 0 mm 3 m/s 643 mmHg 38%
13:00 +32°C° 0 mm 4 m/s 643 mmHg 37%
14:00 +32°C° 0 mm 4 m/s 642 mmHg 35%
15:00 +32°C° 0 mm 4 m/s 642 mmHg 36%
16:00 +30°C° 0 mm 3 m/s 642 mmHg 38%
17:00 +30°C° 0 mm 3 m/s 641 mmHg 39%
18:00 +29°C° 0 mm 2 m/s 641 mmHg 45%
19:00 +27°C° 0 mm 2 m/s 641 mmHg 52%
20:00 +26°C° 0 mm 1 m/s 642 mmHg 58%
21:00 +25°C° 0 mm 1 m/s 642 mmHg 61%
22:00 +25°C° 0 mm 1 m/s 642 mmHg 65%
23:00 +24°C° 0 mm 1 m/s 642 mmHg 69%

27 Junho, Domingo

Tempo Temperatura Precipitação Vento Pressão Humidade
00:00 +23°C° 0 mm 1 m/s 642 mmHg 71%
01:00 +23°C° 0 mm 1 m/s 641 mmHg 74%
02:00 +23°C° 0 mm 1 m/s 641 mmHg 76%
03:00 +22°C° 0.1 mm 1 m/s 641 mmHg 77%
04:00 +22°C° 0.1 mm 1 m/s 641 mmHg 79%
05:00 +21°C° 0.1 mm 1 m/s 642 mmHg 80%
06:00 +23°C° 0 mm 1 m/s 642 mmHg 73%
07:00 +24°C° 0 mm 2 m/s 642 mmHg 67%
08:00 +25°C° 0 mm 2 m/s 643 mmHg 60%
09:00 +27°C° 0 mm 2 m/s 643 mmHg 54%
10:00 +29°C° 0 mm 3 m/s 643 mmHg 47%
11:00 +30°C° 0 mm 3 m/s 643 mmHg 41%
12:00 +31°C° 0 mm 3 m/s 642 mmHg 37%
13:00 +33°C° 0 mm 4 m/s 642 mmHg 33%
14:00 +35°C° 0 mm 4 m/s 642 mmHg 28%
15:00 +33°C° 0 mm 4 m/s 641 mmHg 32%
16:00 +32°C° 0 mm 5 m/s 641 mmHg 36%
17:00 +30°C° 0 mm 5 m/s 640 mmHg 40%
18:00 +28°C° 0.5 mm 4 m/s 640 mmHg 51%
19:00 +26°C° 0.5 mm 3 m/s 641 mmHg 61%
20:00 +24°C° 0.5 mm 2 m/s 641 mmHg 72%
21:00 +24°C° 0.7 mm 2 m/s 641 mmHg 72%
22:00 +24°C° 0.7 mm 2 m/s 642 mmHg 72%
23:00 +24°C° 0.7 mm 2 m/s 642 mmHg 72%

28 Junho, Segunda-feira

Tempo Temperatura Precipitação Vento Pressão Humidade
00:00 +23°C° 0.1 mm 2 m/s 642 mmHg 74%
01:00 +23°C° 0.1 mm 2 m/s 641 mmHg 76%
02:00 +22°C° 0.1 mm 1 m/s 641 mmHg 78%
03:00 +21°C° 0 mm 2 m/s 641 mmHg 79%
04:00 +20°C° 0 mm 2 m/s 641 mmHg 80%
05:00 +20°C° 0 mm 2 m/s 641 mmHg 81%
06:00 +21°C° 0 mm 2 m/s 642 mmHg 78%
07:00 +23°C° 0 mm 2 m/s 642 mmHg 74%
08:00 +23°C° 0 mm 2 m/s 643 mmHg 70%
09:00 +24°C° 0.2 mm 3 m/s 643 mmHg 65%
10:00 +26°C° 0.2 mm 3 m/s 643 mmHg 59%
11:00 +27°C° 0.2 mm 4 m/s 643 mmHg 54%
12:00 +27°C° 0.7 mm 3 m/s 642 mmHg 55%
13:00 +27°C° 0.7 mm 3 m/s 642 mmHg 55%
14:00 +27°C° 0.7 mm 3 m/s 642 mmHg 56%
15:00 +26°C° 0.8 mm 3 m/s 642 mmHg 59%
16:00 +25°C° 0.8 mm 3 m/s 642 mmHg 63%
17:00 +25°C° 0.8 mm 2 m/s 642 mmHg 67%
18:00 +24°C° 0.5 mm 2 m/s 642 mmHg 70%
19:00 +23°C° 0.5 mm 2 m/s 642 mmHg 73%
20:00 +23°C° 0.5 mm 1 m/s 642 mmHg 76%
21:00 +22°C° 0.2 mm 1 m/s 643 mmHg 77%
22:00 +22°C° 0.2 mm 1 m/s 643 mmHg 78%
23:00 +21°C° 0.2 mm 2 m/s 643 mmHg 79%

29 Junho, Terça-feira

Tempo Temperatura Precipitação Vento Pressão Humidade
00:00 +22°C° 0 mm 1 m/s 643 mmHg 79%
01:00 +22°C° 0 mm 1 m/s 642 mmHg 79%
02:00 +21°C° 0 mm 1 m/s 642 mmHg 80%
03:00 +21°C° 0 mm 1 m/s 642 mmHg 80%
04:00 +21°C° 0 mm 1 m/s 642 mmHg 80%
05:00 +21°C° 0 mm 1 m/s 642 mmHg 80%
06:00 +22°C° 0 mm 1 m/s 643 mmHg 76%
07:00 +23°C° 0 mm 2 m/s 643 mmHg 72%
08:00 +24°C° 0 mm 2 m/s 644 mmHg 67%
09:00 +25°C° 0.2 mm 2 m/s 644 mmHg 62%
10:00 +26°C° 0.2 mm 3 m/s 644 mmHg 57%
11:00 +27°C° 0.2 mm 3 m/s 644 mmHg 52%
12:00 +27°C° 0.2 mm 3 m/s 644 mmHg 51%
13:00 +28°C° 0.2 mm 3 m/s 643 mmHg 49%
14:00 +28°C° 0.2 mm 3 m/s 643 mmHg 48%
15:00 +28°C° 0.1 mm 3 m/s 643 mmHg 48%
16:00 +28°C° 0.1 mm 3 m/s 643 mmHg 49%
17:00 +27°C° 0.1 mm 2 m/s 643 mmHg 49%
18:00 +26°C° 0.1 mm 2 m/s 643 mmHg 54%
19:00 +25°C° 0.1 mm 2 m/s 643 mmHg 60%
20:00 +24°C° 0.1 mm 2 m/s 643 mmHg 65%
21:00 +23°C° 0.1 mm 2 m/s 644 mmHg 68%
22:00 +23°C° 0.1 mm 2 m/s 644 mmHg 71%
23:00 +21°C° 0.1 mm 2 m/s 644 mmHg 74%
Mostrar mais

Necessitamos do seu Consentimento

A Meteoprog e os seus Fornecedores de Serviços podem armazenar e aceder a dados pessoais como cookies, identificadores do dispositivo ou outras tecnologias semelhantes existentes no seu dispositivo e processar estes dados para personalizar conteúdos e anúncios, assim como funcionalidades nas redes sociais e análise de tráfego.

  • Armazenar e/ou aceder a informações no seu dispositivo

    Os cookies, identificadores do dispositivo ou outras informações podem ser armazenados ou acedidos no seu dispositivo, para os fins acima indicados.

  • Anúncios e conteúdos personalizados, medição de anúncios e conteúdos, dados sobre o público-alvo e desenvolvimento de produtos

    Os anúncios e os conteúdos podem ser personalizados com base num perfil. Podem ser adicionados dados adicionais para uma maior personalização dos anúncios e dos conteúdos. A eficácia dos anúncios e dos conteúdos pode ser medida. Podem ser obtidas informações sobre o público que visualizou os anúncios e os conteúdos. Estes dados podem ser usados para desenvolver ou melhorar sistemas, softwares ou a experiência do utilizador.

Ao clicar em "Eu concordo”, permitirá o uso de cookies, identificadores do dispositivo e web beacons mencionados ou outras tecnologias semelhantes. As configurações do navegador do seu dispositivo podem ser alteradas.

Para certos fins, podem ser invocados interesses legítimos ao invés de consentimento. Pode ler mais informação sobre este assunto na nossa Política de Privacidade e Cookies.